Dewpoint
-21 -20 -19 -17 -15 -15 -16 -16 -13 -9 -10 -10 -10 -10 -10 -10 -9 -9 -10 -10 -9 -8 -7 -7 -7 -8 -8 -8 -7 -7 -6 -5 -4 -3 -3 -3 -3 -4
-21 -21 -18 -15 -15 -15 -15 -15 -14 -10 -8 -12 -11 -10 -9 -8 -10 -10 -9 -8 -8 -7 -7 -8 -8 -9 -9 -8 -8 -7 -6 -5 -5 -5 -5 -4 -4 -5
-21 -18 -16 -14 -14 -13 -13 -14 -12 -10 -9 -11 -11 -11 -13 -13 -10 -9 -8 -8 -8 -8 -8 -10 -10 -10 -10 -8 -7 -7 -7 -7 -6 -6 -6 -6 -5 -4
-18 -16 -14 -13 -12 -11 -12 -11 -10 -10 -8 -8 -10 -11 -12 -9 -10 -9 -7 -9 -10 -11 -11 -11 -10 -10 -9 -7 -8 -8 -8 -7 -7 -6 -5 -5 -5 -5
-15 -14 -13 -11 -11 -11 -10 -10 -9 -8 -8 -8 -9 -10 -9 -10 -9 -8 -10 -12 -13 -12 -11 -11 -10 -9 -9 -10 -9 -8 -7 -7 -7 -7 -7 -7 -6 -6
-14 -12 -11 -11 -11 -9 -9 -9 -8 -9 -9 -9 -8 -8 -9 -9 -9 -11 -13 -12 -11 -11 -10 -10 -10 -11 -10 -10 -9 -9 -9 -9 -9 -8 -8 -7 -7 -7
-13 -13 -13 -13 -11 -9 -9 -9 -10 -9 -8 -8 -8 -8 -10 -12 -12 -12 -11 -10 -10 -11 -11 -12 -11 -11 -11 -11 -11 -10 -9 -9 -8 -8 -7 -7 -7 -6
-15 -15 -15 -13 -12 -10 -10 -9 -9 -8 -8 -8 -10 -11 -12 -11 -11 -10 -10 -10 -11 -11 -11 -12 -11 -11 -13 -13 -12 -10 -9 -9 -8 -8 -8 -8 -7 -6
-14 -14 -12 -11 -12 -12 -11 -9 -8 -9 -9 -10 -12 -11 -10 -10 -10 -11 -10 -11 -10 -11 -11 -11 -13 -13 -13 -13 -12 -10 -9 -9 -8 -8 -8 -8 -7 -7
-13 -12 -10 -11 -11 -10 -8 -8 -11 -12 -13 -12 -11 -10 -10 -10 -10 -10 -11 -11 -11 -12 -11 -11 -13 -13 -13 -13 -13 -13 -11 -9 -8 -8 -8 -7 -7 -7
-11 -9 -9 -10 -10 -8 -9 -10 -10 -13 -14 -11 -10 -11 -11 -11 -11 -11 -11 -11 -11 -11 -12 -11 -12 -11 -11 -12 -13 -12 -10 -9 -9 -8 -8 -7 -7 -7
-9 -10 -9 -10 -9 -9 -10 -10 -11 -13 -10 -10 -13 -14 -14 -13 -11 -11 -11 -12 -12 -12 -12 -12 -11 -11 -11 -11 -12 -12 -11 -11 -10 -9 -8 -8 -7 -7
-11 -10 -12 -10 -9 -10 -11 -11 -11 -10 -11 -13 -14 -13 -13 -12 -11 -11 -11 -11 -12 -12 -12 -11 -11 -11 -11 -11 -11 -10 -10 -10 -8 -8 -6 -6 -6 -7
-10 -11 -11 -10 -11 -11 -12 -11 -10 -11 -13 -13 -13 -12 -12 -11 -11 -11 -11 -11 -11 -11 -10 -10 -11 -10 -10 -10 -10 -10 -9 -8 -7 -6 -6 -6 -6 -6
-10 -10 -11 -11 -14 -16 -14 -11 -12 -13 -12 -12 -12 -12 -11 -11 -11 -11 -11 -10 -10 -10 -9 -9 -9 -9 -10 -10 -9 -9 -8 -8 -6 -6 -5 -5 -5 -5
-11 -11 -13 -16 -16 -14 -13 -13 -13 -12 -12 -12 -12 -11 -11 -11 -11 -10 -10 -10 -10 -11 -10 -9 -9 -9 -8 -8 -8 -8 -6 -8 -6 -5 -5 -5 -4 -4
-11 -13 -16 -16 -15 -13 -13 -12 -12 -12 -12 -11 -11 -11 -10 -11 -10 -10 -10 -10 -10 -10 -10 -9 -8 -7 -7 -7 -7 -7 -6 -5 -5 -4 -5 -5 -5 -4
-12 -15 -15 -15 -13 -12 -12 -12 -12 -12 -11 -11 -11 -10 -10 -10 -10 -10 -10 -10 -10 -9 -9 -8 -8 -8 -7 -6 -6 -6 -6 -5 -4 -5 -5 -5 -5 -2
-15 -15 -15 -14 -12 -12 -12 -12 -12 -11 -11 -10 -10 -10 -10 -10 -10 -9 -9 -9 -10 -9 -9 -8 -8 -8 -8 -7 -5 -5 -5 -5 -4 -4 -5 -5 -5 -2
-15 -14 -15 -13 -12 -11 -11 -11 -11 -11 -10 -10 -9 -9 -9 -9 -9 -9 -9 -9 -9 -9 -9 -8 -8 -7 -7 -7 -7 -5 -5 -5 -5 -5 -4 -5 -5 -2
-15 -15 -13 -12 -11 -11 -11 -11 -10 -10 -10 -9 -9 -9 -9 -9 -9 -9 -8 -9 -8 -9 -9 -9 -8 -7 -6 -6 -6 -5 -5 -5 -5 -5 -5 -5 -5 -4
-14 -14 -12 -11 -11 -11 -10 -10 -10 -9 -9 -8 -8 -8 -8 -8 -8 -8 -8 -8 -8 -8 -9 -9 -8 -8 -6 -6 -6 -6 -5 -5 -5 -5 -5 -6 -6 -6
-15 -13 -11 -10 -10 -10 -10 -10 -9 -8 -8 -8 -8 -8 -8 -8 -8 -8 -8 -8 -8 -8 -9 -9 -8 -9 -7 -6 -6 -6 -5 -5 -5 -5 -5 -5 -5 -5
Wind_Speed
25 25 26 27 28 29 31 30 30 33 45 31 30 37 37 37 35 33 37 37 33 33 34 37 37 41 44 45 45 46 45 45 42 40 41 42 43 44
26 28 28 29 30 32 32 30 27 30 39 46 46 44 40 38 41 36 38 36 37 32 33 38 43 47 46 47 47 47 45 46 45 46 46 45 45 47
27 27 29 29 32 32 32 30 28 28 36 50 46 48 52 48 44 42 37 35 33 37 39 44 47 43 40 40 40 41 43 45 46 46 47 48 48 46
28 29 30 31 32 32 33 32 31 30 32 39 47 51 48 49 44 46 40 39 33 36 42 42 39 40 39 38 40 41 41 41 42 43 43 43 42 43
29 30 30 30 32 34 33 33 33 32 32 38 47 49 46 44 45 38 43 45 43 39 38 35 34 35 39 42 40 40 39 40 41 40 40 41 43 43
29 29 29 30 33 31 32 32 33 38 40 42 43 41 44 41 36 41 49 42 43 41 37 36 42 41 39 38 39 39 40 41 40 40 40 40 42 43
30 30 30 28 25 25 28 34 36 37 41 40 42 36 37 42 41 42 44 45 41 44 43 45 38 39 43 40 38 38 36 35 36 37 38 40 40 40
30 29 28 26 28 28 31 29 30 36 40 33 43 42 45 41 43 43 39 48 47 42 34 49 44 45 45 42 39 34 35 37 39 39 39 41 41 42
29 29 27 30 31 34 34 34 30 27 34 37 42 38 41 44 43 46 44 42 45 48 39 47 45 46 44 42 38 36 36 37 38 39 39 39 40 41
29 27 30 33 32 32 37 34 41 42 43 37 34 38 39 41 43 41 42 44 45 44 34 39 45 47 45 44 41 38 35 33 33 34 35 37 38 39
31 31 30 30 34 33 35 40 40 44 33 35 31 36 38 32 30 34 39 40 44 42 42 38 43 44 47 48 38 36 32 31 33 34 37 39 40 39
34 35 32 33 31 32 35 37 40 35 38 38 43 34 31 31 31 30 34 38 39 46 37 37 43 38 32 38 36 41 37 38 33 31 33 35 38 40
36 38 39 33 33 33 32 32 29 34 37 37 33 35 35 35 34 33 32 33 38 41 40 34 40 40 32 42 42 43 39 36 35 33 27 26 28 33
34 38 35 34 33 31 27 25 28 29 31 32 36 37 37 38 36 34 32 31 31 34 33 29 34 35 38 41 42 42 37 36 31 23 29 26 24 24
33 33 33 33 31 27 24 26 26 30 31 34 36 35 36 37 37 36 34 33 33 30 29 28 27 30 31 35 37 37 39 36 18 30 27 24 21 18
33 36 34 28 25 24 26 29 30 30 27 31 33 34 36 37 37 35 37 36 36 35 31 28 25 24 27 25 26 31 30 28 31 25 23 18 17 10
30 32 29 28 28 28 30 32 32 32 32 31 32 34 37 37 36 34 34 34 33 36 36 33 25 23 17 16 25 32 33 32 29 27 27 25 25 17
27 28 28 28 28 31 34 36 34 33 32 31 31 33 36 36 35 35 33 33 33 33 33 30 29 29 27 22 27 35 37 36 28 26 31 32 30 22
25 26 28 28 29 32 34 35 35 33 32 31 32 33 34 33 33 34 33 32 32 32 29 25 27 28 29 24 28 31 39 41 31 30 33 35 33 27
25 27 28 28 30 33 34 34 34 33 31 30 31 32 33 32 33 32 31 30 30 29 27 24 25 25 24 19 18 29 35 41 42 38 31 33 35 26
27 27 26 28 31 34 33 32 33 33 31 30 31 33 31 30 30 29 29 26 25 26 25 23 22 17 15 14 20 25 30 33 37 43 46 33 39 49
27 27 26 28 33 33 32 32 32 30 28 31 33 33 30 27 27 27 25 25 26 22 20 17 18 17 15 19 19 21 26 31 37 39 46 51 44 40
26 26 28 30 34 33 32 31 30 30 31 33 33 31 28 26 22 23 21 23 21 20 17 15 16 16 14 14 19 21 24 28 34 38 41 47 49 43
Wind_Direction
317 317 316 317 316 317 318 319 313 306 309 308 310 310 311 310 308 302 298 297 293 291 289 291 290 292 289 287 282 279 277 275 271 272 270 268 266 265
318 316 316 317 318 319 322 319 311 303 298 305 310 313 314 306 306 302 300 295 293 286 288 291 292 290 287 283 280 278 276 275 274 272 270 269 267 265
318 317 318 319 319 321 322 321 315 309 301 304 310 314 314 315 310 308 298 288 287 299 295 293 293 289 287 284 282 282 277 274 273 271 268 266 265 264
320 319 318 319 318 320 323 321 318 313 304 301 308 309 312 312 312 310 301 308 297 295 295 294 291 287 286 286 285 283 279 275 271 269 268 268 267 265
321 320 319 320 319 321 322 320 319 312 304 299 300 309 309 309 307 297 310 308 304 301 299 294 290 289 288 287 285 282 279 279 277 277 273 269 266 264
317 317 316 316 317 322 319 315 311 312 307 304 303 301 303 307 311 309 308 308 306 308 299 293 294 292 288 287 284 281 279 277 275 273 270 267 265 261
317 318 320 321 319 315 315 311 310 307 306 306 302 307 316 313 311 310 305 307 306 302 299 301 298 295 292 292 289 286 282 280 276 272 269 267 265 261
327 329 328 330 329 320 316 313 310 309 304 316 317 313 313 309 309 309 307 305 303 306 304 301 302 299 303 304 299 287 285 282 277 274 271 269 266 264
334 332 330 329 327 325 326 312 313 318 311 311 310 307 306 311 311 306 304 301 299 302 304 298 309 304 309 308 300 291 286 284 279 276 273 270 266 261
335 330 328 329 327 325 317 319 318 317 316 315 307 307 308 307 305 303 304 304 301 303 303 294 308 308 314 310 307 304 295 288 284 279 275 271 266 263
332 331 329 324 325 320 320 320 317 315 321 320 310 307 308 308 308 309 308 311 305 306 313 303 307 304 310 311 311 310 300 291 287 280 274 270 267 265
328 330 326 324 322 322 319 319 314 323 327 316 315 317 324 330 325 320 318 309 305 306 311 306 307 308 306 305 306 313 310 311 300 287 280 271 266 263
323 323 326 326 323 320 319 311 321 320 314 316 325 331 334 332 331 329 326 321 313 305 319 311 306 313 303 306 311 311 313 316 310 302 289 281 271 258
320 323 326 323 321 320 320 324 321 317 323 333 332 330 332 334 333 334 333 331 327 320 328 329 314 314 312 304 303 322 325 323 322 314 312 308 297 273
320 322 316 322 323 326 331 327 328 337 336 331 327 331 334 334 336 339 339 340 336 341 343 342 330 323 317 306 305 317 326 334 330 333 330 322 313 297
327 317 320 324 331 335 338 342 344 340 329 329 331 333 336 339 340 343 341 346 343 346 354 351 341 334 324 321 321 333 347 324 347 351 343 342 348 306
320 321 331 338 339 341 342 344 344 343 340 337 335 336 340 342 343 347 348 346 346 346 349 353 354 356 350 352 354 358 357 359 3 6 3 352 357 359
323 332 338 339 339 341 342 342 343 342 341 338 338 340 341 342 343 348 349 349 348 351 351 353 357 4 13 21 16 5 5 6 14 20 18 1 353 19
337 339 339 339 340 341 341 339 338 340 339 339 340 342 343 344 346 347 349 349 350 351 351 360 2 2 353 346 20 33 18 12 18 22 25 20 5 20
343 340 338 340 341 340 339 338 337 339 339 341 341 343 347 346 346 347 348 347 346 347 352 2 4 2 349 341 337 29 40 32 25 25 23 23 30 62
341 339 340 340 341 340 339 337 336 338 339 338 341 345 348 347 345 346 346 348 346 350 352 357 1 1 14 37 36 34 41 45 44 41 36 34 35 57
339 337 339 341 342 341 338 337 338 341 341 339 340 344 347 346 344 343 346 347 348 349 349 355 8 11 25 38 37 37 45 53 56 55 62 57 56 50
338 337 340 341 343 340 338 338 339 340 339 338 341 345 346 345 347 344 343 342 344 352 355 5 11 16 20 33 41 43 50 58 59 54 61 67 73 77
Height
1453 1449 1445 1442 1437 1433 1429 1425 1418 1401 1387 1387 1387 1385 1382 1379 1375 1372 1367 1363 1360 1356 1353 1349 1345 1341 1336 1332 1328 1324 1321 1319 1317 1315 1314 1313 1313 1314
1447 1443 1439 1435 1430 1426 1422 1418 1414 1407 1390 1385 1378 1376 1373 1369 1366 1362 1358 1354 1350 1347 1343 1340 1335 1329 1324 1319 1314 1310 1307 1305 1303 1302 1301 1300 1300 1300
1442 1437 1433 1428 1423 1419 1415 1410 1406 1402 1392 1373 1374 1368 1362 1357 1354 1350 1345 1340 1338 1335 1332 1327 1321 1315 1310 1306 1301 1298 1295 1291 1289 1287 1286 1286 1285 1285
1435 1431 1426 1421 1416 1412 1407 1402 1398 1395 1389 1376 1367 1361 1356 1351 1345 1339 1335 1331 1327 1323 1317 1312 1307 1303 1297 1293 1289 1285 1281 1278 1276 1273 1271 1271 1271 1270
1430 1425 1420 1415 1409 1405 1400 1395 1390 1386 1381 1374 1362 1356 1348 1343 1336 1330 1325 1320 1316 1311 1305 1300 1295 1292 1287 1282 1276 1272 1268 1265 1262 1260 1259 1257 1257 1257
1424 1420 1414 1409 1404 1399 1394 1390 1385 1379 1373 1366 1356 1348 1343 1336 1331 1324 1311 1310 1303 1299 1293 1288 1284 1278 1273 1268 1263 1258 1255 1251 1249 1247 1245 1244 1244 1244
1418 1413 1408 1403 1399 1395 1391 1384 1379 1372 1365 1357 1348 1341 1335 1328 1323 1316 1306 1297 1292 1289 1282 1275 1269 1264 1258 1253 1249 1244 1240 1237 1235 1233 1231 1230 1229 1229
1410 1405 1401 1397 1392 1389 1383 1379 1374 1367 1359 1351 1344 1336 1328 1322 1316 1308 1300 1293 1278 1280 1273 1261 1259 1250 1244 1240 1234 1232 1229 1225 1222 1219 1218 1216 1215 1215
1406 1401 1396 1392 1387 1381 1374 1369 1364 1360 1356 1349 1338 1331 1323 1317 1309 1300 1293 1286 1275 1267 1266 1250 1248 1239 1234 1227 1223 1219 1215 1212 1208 1205 1204 1202 1201 1201
1402 1397 1392 1385 1381 1376 1369 1362 1357 1351 1345 1339 1333 1325 1318 1311 1304 1295 1286 1276 1267 1260 1258 1245 1238 1228 1222 1215 1210 1206 1201 1198 1195 1192 1190 1188 1186 1185
1396 1391 1387 1382 1377 1371 1365 1356 1348 1342 1337 1331 1325 1319 1311 1303 1297 1288 1279 1271 1257 1250 1248 1240 1229 1221 1212 1202 1197 1194 1190 1187 1183 1179 1175 1173 1171 1171
1391 1386 1382 1378 1371 1366 1359 1350 1341 1335 1328 1321 1315 1308 1302 1294 1289 1283 1274 1266 1257 1241 1240 1235 1223 1218 1203 1195 1189 1183 1178 1172 1168 1164 1161 1158 1156 1155
1386 1380 1375 1370 1365 1359 1353 1345 1339 1332 1324 1317 1308 1301 1294 1288 1281 1275 1269 1262 1252 1242 1234 1229 1218 1212 1207 1188 1178 1174 1170 1162 1156 1150 1145 1141 1138 1137
1382 1376 1370 1365 1358 1352 1345 1340 1335 1328 1319 1311 1304 1296 1289 1282 1275 1268 1261 1254 1247 1238 1228 1223 1214 1208 1199 1189 1177 1165 1161 1154 1145 1139 1133 1128 1123 1120
1380 1373 1366 1359 1352 1345 1340 1335 1329 1321 1314 1308 1301 1293 1286 1278 1270 1261 1254 1248 1239 1232 1224 1217 1210 1202 1196 1187 1176 1165 1155 1144 1140 1132 1124 1118 1112 1107
1375 1367 1361 1354 1348 1342 1335 1330 1324 1318 1313 1306 1298 1290 1282 1274 1266 1259 1250 1242 1233 1225 1220 1214 1207 1199 1190 1183 1175 1164 1155 1146 1136 1128 1120 1112 1106 1100
1370 1361 1355 1348 1342 1336 1331 1326 1320 1314 1308 1302 1294 1286 1278 1270 1263 1256 1249 1241 1234 1225 1215 1209 1204 1197 1189 1182 1173 1165 1154 1145 1137 1127 1117 1108 1099 1093
1364 1357 1351 1345 1340 1333 1327 1321 1316 1310 1304 1298 1291 1284 1276 1268 1260 1253 1248 1241 1233 1226 1219 1212 1203 1195 1188 1183 1175 1165 1156 1147 1138 1128 1118 1108 1096 1087
1361 1354 1349 1343 1337 1331 1325 1319 1312 1307 1301 1295 1288 1281 1274 1267 1259 1252 1246 1240 1233 1227 1221 1214 1207 1201 1193 1187 1180 1172 1162 1152 1142 1132 1121 1112 1102 1089
1357 1352 1346 1341 1335 1329 1322 1316 1309 1304 1298 1291 1285 1279 1272 1265 1258 1252 1246 1239 1234 1228 1222 1216 1210 1204 1199 1194 1186 1177 1170 1160 1149 1137 1127 1119 1110 1099
1354 1349 1344 1338 1332 1326 1319 1313 1307 1300 1294 1289 1283 1277 1270 1264 1257 1252 1246 1241 1236 1230 1224 1219 1214 1209 1204 1198 1191 1185 1178 1169 1161 1150 1138 1125 1117 1108
1352 1346 1341 1336 1330 1323 1316 1310 1303 1297 1292 1286 1280 1274 1268 1263 1257 1251 1246 1241 1236 1231 1226 1222 1217 1212 1207 1202 1198 1192 1185 1178 1170 1163 1153 1144 1138 1133
1349 1343 1338 1332 1326 1319 1313 1307 1301 1295 1289 1283 1277 1271 1266 1261 1257 1252 1247 1242 1237 1232 1228 1224 1220 1216 1212 1208 1204 1199 1194 1187 1180 1174 1168 1161 1156 1153